TimeCDT,TemperatureF,Dew PointF,Humidity,Sea Level PressureIn,VisibilityMPH,Wind Direction,Wind SpeedMPH,Gust SpeedMPH,PrecipitationIn,Events,Conditions,WindDirDegrees,DateUTC
12:15 AM,82.4,66.2,58,30.00,10.0,South,4.6,17.3,N/A,,Clear,170,2013-06-23 05:15:00
12:35 AM,82.4,64.4,54,30.00,10.0,South,11.5,17.3,N/A,,Clear,180,2013-06-23 05:35:00
12:55 AM,82.4,64.4,54,30.00,10.0,SSE,6.9,17.3,N/A,,Clear,160,2013-06-23 05:55:00
1:15 AM,80.6,66.2,61,30.00,10.0,South,6.9,16.1,N/A,,Clear,170,2013-06-23 06:15:00
1:35 AM,80.6,66.2,61,30.00,10.0,South,10.4,16.1,N/A,,Clear,170,2013-06-23 06:35:00
1:55 AM,80.6,66.2,61,30.01,10.0,South,8.1,-,N/A,,Clear,170,2013-06-23 06:55:00
2:15 AM,78.8,66.2,65,30.00,10.0,South,11.5,-,N/A,,Clear,170,2013-06-23 07:15:00
2:35 AM,78.8,68.0,69,29.99,10.0,SSE,6.9,-,N/A,,Clear,160,2013-06-23 07:35:00
2:55 AM,78.8,68.0,69,29.99,10.0,SSE,8.1,-,N/A,,Clear,160,2013-06-23 07:55:00
3:15 AM,78.8,68.0,69,29.99,10.0,South,9.2,-,N/A,,Clear,170,2013-06-23 08:15:00
3:35 AM,77.0,68.0,74,29.99,10.0,South,6.9,-,N/A,,Clear,170,2013-06-23 08:35:00
3:55 AM,77.0,68.0,74,29.99,10.0,South,6.9,-,N/A,,Clear,170,2013-06-23 08:55:00
4:15 AM,75.2,68.0,78,29.99,10.0,SSE,6.9,-,N/A,,Clear,160,2013-06-23 09:15:00
4:35 AM,75.2,68.0,78,29.99,10.0,SSE,3.5,-,N/A,,Clear,160,2013-06-23 09:35:00
4:55 AM,75.2,68.0,78,29.99,10.0,South,3.5,-,N/A,,Clear,170,2013-06-23 09:55:00
5:15 AM,75.2,66.2,73,30.00,10.0,Calm,Calm,-,N/A,,Clear,0,2013-06-23 10:15:00
5:35 AM,73.4,66.2,78,29.99,10.0,Calm,Calm,-,N/A,,Clear,0,2013-06-23 10:35:00
5:55 AM,73.4,68.0,83,29.99,10.0,SSE,4.6,-,N/A,,Clear,160,2013-06-23 10:55:00
6:15 AM,73.4,68.0,83,30.00,10.0,Calm,Calm,-,N/A,,Clear,0,2013-06-23 11:15:00
6:35 AM,73.4,68.0,83,30.01,10.0,Calm,Calm,-,N/A,,Clear,0,2013-06-23 11:35:00
6:55 AM,73.4,69.8,88,30.01,9.0,Calm,Calm,-,N/A,,Clear,0,2013-06-23 11:55:00
7:15 AM,73.4,69.8,88,30.00,10.0,SSE,3.5,-,N/A,,Clear,160,2013-06-23 12:15:00
7:35 AM,75.2,69.8,83,30.00,10.0,South,4.6,-,N/A,,Clear,170,2013-06-23 12:35:00
7:55 AM,77.0,69.8,78,30.00,10.0,South,5.8,-,N/A,,Clear,180,2013-06-23 12:55:00
8:15 AM,78.8,69.8,74,30.01,10.0,South,8.1,-,N/A,,Clear,180,2013-06-23 13:15:00
8:35 AM,78.8,69.8,74,30.02,9.0,South,9.2,-,N/A,,Clear,190,2013-06-23 13:35:00
8:55 AM,80.6,68.0,65,30.02,10.0,SSW,9.2,-,N/A,,Clear,200,2013-06-23 13:55:00
9:15 AM,82.4,68.0,62,30.02,10.0,South,8.1,-,N/A,,Clear,190,2013-06-23 14:15:00
9:35 AM,84.2,66.2,55,30.02,10.0,South,12.7,-,N/A,,Clear,170,2013-06-23 14:35:00
9:55 AM,84.2,64.4,51,30.02,10.0,South,12.7,19.6,N/A,,Clear,180,2013-06-23 14:55:00
10:15 AM,87.8,62.6,43,30.02,10.0,South,11.5,-,N/A,,Clear,180,2013-06-23 15:15:00
10:35 AM,87.8,60.8,40,30.02,10.0,SSW,15.0,19.6,N/A,,Clear,200,2013-06-23 15:35:00
10:55 AM,87.8,60.8,40,30.02,9.0,SSW,16.1,21.9,N/A,,Clear,210,2013-06-23 15:55:00
11:15 AM,89.6,60.8,38,30.02,10.0,SSW,15.0,18.4,N/A,,Clear,200,2013-06-23 16:15:00
11:35 AM,89.6,57.2,33,30.02,9.0,South,12.7,19.6,N/A,,Clear,190,2013-06-23 16:35:00
11:55 AM,91.4,57.2,31,30.02,10.0,SSW,12.7,-,N/A,,Clear,200,2013-06-23 16:55:00
12:15 PM,93.2,59.0,32,30.02,8.0,South,11.5,19.6,N/A,,Partly Cloudy,180,2013-06-23 17:15:00
12:35 PM,91.4,60.8,36,30.01,10.0,South,10.4,19.6,N/A,,Partly Cloudy,170,2013-06-23 17:35:00
12:55 PM,93.2,57.2,30,30.01,9.0,South,15.0,19.6,N/A,,Clear,190,2013-06-23 17:55:00
1:15 PM,91.4,59.0,34,30.00,10.0,South,12.7,19.6,N/A,,Clear,170,2013-06-23 18:15:00
1:35 PM,91.4,57.2,31,30.00,10.0,SSE,17.3,21.9,N/A,,Clear,160,2013-06-23 18:35:00
1:55 PM,93.2,57.2,30,30.00,10.0,South,10.4,21.9,N/A,,Clear,170,2013-06-23 18:55:00
2:15 PM,93.2,55.4,28,29.99,10.0,South,18.4,23.0,N/A,,Clear,190,2013-06-23 19:15:00
2:35 PM,93.2,57.2,30,29.99,10.0,South,11.5,18.4,N/A,,Clear,170,2013-06-23 19:35:00
2:55 PM,93.2,60.8,34,29.98,10.0,SSE,18.4,25.3,N/A,,Partly Cloudy,160,2013-06-23 19:55:00
3:15 PM,95.0,59.0,30,29.97,9.0,South,12.7,23.0,N/A,,Clear,180,2013-06-23 20:15:00
3:35 PM,95.0,59.0,30,29.96,10.0,SSE,13.8,19.6,N/A,,Clear,160,2013-06-23 20:35:00
3:55 PM,95.0,60.8,32,29.96,10.0,South,13.8,21.9,N/A,,Clear,170,2013-06-23 20:55:00
4:15 PM,95.0,60.8,32,29.95,10.0,SSE,11.5,23.0,N/A,,Clear,160,2013-06-23 21:15:00
4:35 PM,96.8,59.0,28,29.94,10.0,SSE,16.1,23.0,N/A,,Clear,150,2013-06-23 21:35:00
4:55 PM,96.8,57.2,27,29.94,10.0,South,16.1,21.9,N/A,,Clear,180,2013-06-23 21:55:00
5:15 PM,96.8,60.8,30,29.94,10.0,SSE,11.5,19.6,N/A,,Clear,160,2013-06-23 22:15:00
5:35 PM,93.2,62.6,36,29.93,10.0,South,13.8,17.3,N/A,,Clear,170,2013-06-23 22:35:00
5:55 PM,95.0,60.8,32,29.93,10.0,South,15.0,19.6,N/A,,Clear,170,2013-06-23 22:55:00
6:15 PM,93.2,62.6,36,29.92,10.0,SSE,13.8,21.9,N/A,,Clear,150,2013-06-23 23:15:00
6:35 PM,91.4,60.8,36,29.92,10.0,South,15.0,20.7,N/A,,Clear,170,2013-06-23 23:35:00
6:55 PM,91.4,60.8,36,29.93,10.0,South,9.2,20.7,N/A,,Clear,170,2013-06-23 23:55:00
7:15 PM,91.4,60.8,36,29.93,10.0,SSE,9.2,18.4,N/A,,Clear,160,2013-06-24 00:15:00
7:35 PM,91.4,60.8,36,29.93,10.0,SSE,12.7,18.4,N/A,,Clear,160,2013-06-24 00:35:00
7:55 PM,89.6,60.8,38,29.94,10.0,South,13.8,-,N/A,,Clear,190,2013-06-24 00:55:00
8:15 PM,89.6,60.8,38,29.94,10.0,South,9.2,-,N/A,,Clear,170,2013-06-24 01:15:00
8:35 PM,89.6,60.8,38,29.94,10.0,SSE,5.8,-,N/A,,Clear,160,2013-06-24 01:35:00
8:55 PM,87.8,60.8,40,29.95,10.0,SSE,8.1,-,N/A,,Clear,160,2013-06-24 01:55:00
9:15 PM,87.8,60.8,40,29.95,10.0,SSE,5.8,-,N/A,,Clear,150,2013-06-24 02:15:00
9:35 PM,86.0,60.8,43,29.96,10.0,SSE,5.8,-,N/A,,Clear,150,2013-06-24 02:35:00
9:55 PM,84.2,60.8,45,29.96,10.0,Calm,Calm,-,N/A,,Clear,0,2013-06-24 02:55:00
10:15 PM,84.2,60.8,45,29.97,10.0,SSE,3.5,-,N/A,,Clear,150,2013-06-24 03:15:00
10:35 PM,82.4,60.8,48,29.98,10.0,South,4.6,-,N/A,,Clear,170,2013-06-24 03:35:00
10:55 PM,82.4,60.8,48,29.99,10.0,Calm,Calm,-,N/A,,Clear,0,2013-06-24 03:55:00
11:15 PM,82.4,60.8,48,29.99,10.0,Calm,Calm,-,N/A,,Clear,0,2013-06-24 04:15:00
11:35 PM,80.6,60.8,51,30.00,10.0,Calm,Calm,-,N/A,,Clear,0,2013-06-24 04:35:00
11:55 PM,80.6,60.8,51,30.01,10.0,SSE,3.5,-,N/A,,Clear,150,2013-06-24 04:55:00